[[{"header":{"parameterUnit":"m.s-1","parameterCategory":1,"la1":30.2991,"la2":30.254,"lo1":-89.0895,"lo2":-89.0444,"dy":0.0017,"dx":0.0017,"nx":28,"ny":28,"refTime":"2024-08-18T03:00:00:Z","depth":0,"parameterNumber":2,"parameterNumberName":"U-component_of_WINDS"},"data":[0,0,0,0,0,0,0,0,0,0,0,0,0,0,0,0,0,0,0,0,0,0,0,0,0,0,0,0,0,0,0,0,0,0,0,0,0,0,0,0,0,0,0,0,0,0,0,0,0,0,0,0,0,0,0,0,0,0,3.4648,3.4648,0,3.4694,3.4695,3.4695,3.4683,3.4682,3.4681,3.4681,3.4727,3.4729,3.4731,0,0,0,0,0,0,0,0,0,0,0,0,0,3.4549,3.4551,3.4648,3.4648,3.4649,3.4694,3.4695,3.4695,3.4683,3.4682,3.4681,3.468,3.4726,3.4728,3.4731,0,0,0,0,0,0,0,0,0,0,0,0,0,3.4593,3.4552,3.4648,3.4648,3.4649,3.4694,3.4695,3.4696,3.4684,3.4682,3.4681,3.468,3.4725,3.4728,3.4731,3.4778,0,0,3.4741,3.4742,0,0,0,0,0,0,0,0,3.4591,3.4597,3.4648,3.4649,3.4649,3.4682,3.4677,3.4723,3.4684,3.467,3.4681,3.4679,3.4713,3.4717,3.4728,3.478,3.4782,3.4741,3.4743,3.4744,3.4745,0,0,0,0,0,0,0,3.4588,3.4595,3.4666,3.4649,3.4649,3.4647,3.4651,3.4685,3.4699,3.4672,3.4671,3.4677,3.4713,3.4725,3.4729,3.4782,3.4741,3.4744,3.4745,3.4747,3.4876,3.4878,0,0,0,0,0,0,3.4584,3.4592,3.4665,3.4667,3.4616,3.4649,3.4655,3.4673,3.4698,3.4701,3.4678,3.4676,3.4721,3.4726,3.4731,3.4787,3.4744,3.4747,3.4749,3.4875,3.4876,3.4878,0,0,0,0,0,0,3.4582,3.4591,3.4663,3.463,3.4639,3.4653,3.4673,3.4674,3.4687,3.4703,3.4705,3.4688,3.472,3.4726,3.4767,3.4789,3.4748,3.4751,3.4873,3.4875,3.4877,3.4901,0,0,0,0,0,0,3.4579,3.459,3.4608,3.463,3.4641,3.4697,3.4674,3.4676,3.4692,3.469,3.4713,3.4716,3.4719,3.4762,3.477,3.4792,3.4754,3.4871,3.4874,3.4877,3.4898,3.4903,3.4908,0,0,0,0,0,3.4576,3.4612,3.4608,3.4617,3.4663,3.4699,3.4705,3.4708,3.4694,3.4712,3.4723,3.4715,3.4786,3.4766,3.4775,3.4799,3.4869,3.4873,3.4876,3.4896,3.4902,3.4908,0,0,0,0,0,0,3.459,3.4614,3.4611,3.4655,3.4675,3.4697,3.4719,3.4715,3.4739,3.4736,3.474,3.4745,3.4786,3.4797,3.4774,3.4846,3.4825,3.4831,3.4837,3.4844,3.4849,3.4845,3.4756,0,0,0,0,0,3.4598,3.4626,3.4646,3.4683,3.4693,3.4705,3.472,3.4722,3.4742,3.475,3.4764,3.4784,3.4811,3.4828,3.4854,3.49,3.4905,3.4921,3.4926,3.4931,3.4935,3.4961,3.4969,3.489,3.489,3.489,0,0,3.4615,3.4632,3.4649,3.4686,3.4702,3.473,3.4712,3.4742,3.4763,3.4755,3.4793,3.4805,3.4827,3.4871,3.4891,3.4881,3.4958,3.4935,3.4938,3.494,3.4966,3.4973,3.498,3.4892,3.4892,3.4891,0,0,3.4661,3.4677,3.471,3.4726,3.4751,3.4759,3.4767,3.479,3.4797,3.4836,3.4831,3.4857,3.4903,3.4919,3.4934,3.4989,3.4983,3.4998,3.5024,3.505,3.5056,3.5061,3.5081,3.5088,3.5002,3.5002,3.5002,0,3.4679,3.4721,3.4727,3.4759,3.4775,3.4771,3.4805,3.482,3.4852,3.4863,3.4852,3.4911,3.4926,3.4974,3.4988,3.5,3.501,3.4994,3.5055,3.506,3.5065,3.5084,3.5092,3.5004,3.5003,3.5003,3.5003,0,3.4742,3.4772,3.4796,3.4828,3.4847,3.488,3.4891,3.491,3.4911,3.492,3.4961,3.498,3.5009,3.5021,3.5022,3.507,3.5063,3.5054,3.5033,3.5074,3.5092,3.5099,3.5006,3.5005,3.5005,3.5004,0,0,3.4795,3.4831,3.484,3.4855,3.4883,3.4906,3.4939,3.4969,3.4986,3.5009,3.5036,3.5077,3.5069,3.5085,3.5088,3.5111,3.5154,3.5099,3.5099,3.5108,3.5209,3.5215,3.5223,3.5152,3.5153,3.5154,3.5207,0,3.4842,3.4901,3.4908,3.496,3.4988,3.4986,3.5015,3.5035,3.5046,3.5071,3.5083,3.5112,3.5099,3.5109,3.5132,3.5144,3.5174,3.5141,3.5177,3.5178,3.517,3.5233,3.5239,3.5288,3.5214,3.5215,3.5216,0,3.4905,3.493,3.4985,3.5011,3.5023,3.5049,3.5078,3.5103,3.5127,3.5133,3.5153,3.5154,3.5189,3.5168,3.5216,3.5193,3.5209,3.5218,3.522,3.5222,3.5198,3.5236,3.5304,3.531,3.5227,3.5226,3.5225,0,3.4937,3.4985,3.5025,3.5038,3.5069,3.5087,3.5101,3.5124,3.5142,3.5168,3.518,3.521,3.5225,3.5248,3.5257,3.5242,3.5305,3.5286,3.5311,3.5311,3.5323,3.5321,3.5393,3.5335,3.5335,3.5335,3.5335,0,3.4988,3.5022,3.504,3.5064,3.5102,3.5111,3.5148,3.5161,3.5182,3.5209,3.521,3.5235,3.5246,3.5273,3.5281,3.532,3.5327,3.5333,3.5334,3.5332,3.5331,3.5341,3.5337,3.5337,3.5337,3.5336,3.5336,0,3.5029,3.5043,3.5086,3.5113,3.5121,3.5147,3.5171,3.5194,3.5206,3.524,3.5249,3.5267,3.5299,3.5311,3.535,3.5355,3.54,3.5399,3.5392,3.5392,3.5417,3.5414,3.5496,3.5507,3.5443,3.5444,3.5444,0,3.506,3.5086,3.5117,3.5135,3.515,3.518,3.5199,3.521,3.523,3.5261,3.5281,3.5314,3.534,3.5392,3.5408,3.5439,3.5438,3.5465,3.5442,3.544,3.5437,3.5435,3.5438,3.5468,3.5469,3.5469,3.547,0,3.5114,3.512,3.5147,3.5179,3.5202,3.5227,3.5251,3.5266,3.528,3.5303,3.5337,3.5357,3.5399,3.5431,3.5463,3.5477,3.5476,3.5477,3.5485,3.5482,3.5476,3.5479,3.5402,3.5475,3.5474,3.5474,3.5473,3.5473,3.515,3.5173,3.5199,3.5231,3.525,3.5274,3.5297,3.5313,3.5341,3.5376,3.5381,3.5417,3.5443,3.5486,3.5502,3.5531,3.5523,3.5534,3.5537,3.5539,3.554,3.5473,3.5537,3.5537,3.5537,3.5536,3.5536,0,3.5202,3.522,3.5249,3.5283,3.5309,3.5307,3.5334,3.5355,3.5387,3.5412,3.5438,3.5478,3.551,3.553,3.5563,3.5582,3.5583,3.559,3.5588,3.5592,3.5545,3.5535,3.559,3.559,3.559,3.5589,3.5589,3.5589,3.5233,3.5272,3.5282,3.5332,3.5349,3.5385,3.5401,3.5423,3.5442,3.5486,3.5514,3.5527,3.555,3.5585,3.5615,3.562,3.5632,3.564,3.5644,3.56,3.5595,3.5589,3.558,3.5643,3.5643,3.5688,3.5689,3.5689]},{"header":{"parameterUnit":"m.s-1","parameterCategory":1,"la1":30.2991,"la2":30.254,"lo1":-89.0895,"lo2":-89.0444,"dy":0.0017,"dx":0.0017,"nx":28,"ny":28,"refTime":"2024-08-18T03:00:00:Z","depth":0,"parameterNumber":3,"parameterNumberName":"V-component_of_WINDS"},"data":[0,0,0,0,0,0,0,0,0,0,0,0,0,0,0,0,0,0,0,0,0,0,0,0,0,0,0,0,0,0,0,0,0,0,0,0,0,0,0,0,0,0,0,0,0,0,0,0,0,0,0,0,0,0,0,0,0,0,-7.0798,-7.0799,0,-7.0832,-7.0832,-7.0832,-7.0735,-7.0732,-7.0729,-7.0726,-7.0756,-7.076,-7.0763,0,0,0,0,0,0,0,0,0,0,0,0,0,-7.0647,-7.065,-7.0798,-7.0799,-7.0799,-7.0832,-7.0832,-7.0832,-7.0735,-7.0732,-7.0728,-7.0725,-7.0755,-7.0759,-7.0764,0,0,0,0,0,0,0,0,0,0,0,0,0,-7.07,-7.0651,-7.0798,-7.0755,-7.0751,-7.0831,-7.0832,-7.0832,-7.0736,-7.0732,-7.0727,-7.0723,-7.0754,-7.0759,-7.0764,-7.0887,0,0,-7.0781,-7.0783,0,0,0,0,0,0,0,0,-7.0697,-7.0705,-7.0761,-7.0758,-7.0754,-7.0775,-7.0789,-7.0851,-7.0737,-7.0742,-7.0726,-7.0721,-7.0766,-7.077,-7.0786,-7.0888,-7.089,-7.0781,-7.0784,-7.0787,-7.0788,0,0,0,0,0,0,0,-7.0693,-7.0703,-7.0811,-7.0762,-7.0757,-7.0732,-7.0735,-7.0801,-7.0778,-7.0741,-7.0734,-7.0739,-7.0763,-7.0781,-7.0786,-7.089,-7.0781,-7.0786,-7.0789,-7.0791,-7.1095,-7.11,0,0,0,0,0,0,-7.0696,-7.0701,-7.081,-7.0812,-7.0714,-7.0739,-7.0741,-7.0772,-7.0777,-7.0774,-7.0743,-7.0735,-7.0774,-7.078,-7.0786,-7.093,-7.0787,-7.0792,-7.0795,-7.109,-7.1096,-7.1101,0,0,0,0,0,0,-7.0693,-7.0706,-7.0809,-7.0755,-7.0766,-7.0746,-7.0781,-7.0775,-7.0793,-7.0779,-7.0774,-7.0766,-7.0771,-7.0779,-7.0863,-7.093,-7.0794,-7.0799,-7.1084,-7.1092,-7.1099,-7.122,0,0,0,0,0,0,-7.0689,-7.0706,-7.0753,-7.0757,-7.0769,-7.0886,-7.0786,-7.0779,-7.0803,-7.0792,-7.0799,-7.0796,-7.0768,-7.0856,-7.0868,-7.0935,-7.0803,-7.1078,-7.1088,-7.1096,-7.1209,-7.123,-7.1248,0,0,0,0,0,-7.0684,-7.0785,-7.0756,-7.077,-7.0828,-7.089,-7.0897,-7.0864,-7.0809,-7.0856,-7.0847,-7.0795,-7.0921,-7.0865,-7.0879,-7.0948,-7.1074,-7.1085,-7.1096,-7.1201,-7.1226,-7.1247,0,0,0,0,0,0,-7.0788,-7.0785,-7.0752,-7.0858,-7.0876,-7.0874,-7.0932,-7.0892,-7.0924,-7.0912,-7.0869,-7.0871,-7.0963,-7.0963,-7.0901,-7.1067,-7.0988,-7.1002,-7.1063,-7.1087,-7.1106,-7.1103,-7.0808,0,0,0,0,0,-7.0824,-7.0876,-7.0869,-7.0963,-7.0974,-7.0952,-7.0977,-7.0951,-7.0966,-7.0973,-7.097,-7.0986,-7.1029,-7.1058,-7.1096,-7.1209,-7.1209,-7.1264,-7.1283,-7.1299,-7.1311,-7.1371,-7.1395,-7.1137,-7.1137,-7.1137,0,0,-7.0897,-7.0902,-7.0937,-7.0984,-7.0995,-7.1049,-7.0958,-7.1019,-7.1058,-7.0981,-7.1061,-7.106,-7.1075,-7.1174,-7.1217,-7.1177,-7.1382,-7.1312,-7.1325,-7.1329,-7.1384,-7.1409,-7.143,-7.1144,-7.1143,-7.1142,0,0,-7.1059,-7.1068,-7.1147,-7.116,-7.1177,-7.1162,-7.1181,-7.1186,-7.1183,-7.1262,-7.1206,-7.1251,-7.1326,-7.1339,-7.1356,-7.1524,-7.1477,-7.1537,-7.1637,-7.1695,-7.1716,-7.1733,-7.1793,-7.1815,-7.155,-7.155,-7.155,0,-7.1147,-7.1228,-7.1192,-7.1258,-7.128,-7.1214,-7.1294,-7.1307,-7.1336,-7.1352,-7.1307,-7.1401,-7.1406,-7.1507,-7.1548,-7.1564,-7.1584,-7.1536,-7.1716,-7.1733,-7.1749,-7.1806,-7.1828,-7.1557,-7.1557,-7.1556,-7.1555,0,-7.1336,-7.1393,-7.1454,-7.1486,-7.1515,-7.1587,-7.1561,-7.1594,-7.1565,-7.1555,-7.1636,-7.1641,-7.168,-7.1702,-7.1673,-7.1799,-7.1774,-7.1724,-7.1643,-7.1782,-7.1834,-7.1855,-7.1568,-7.1565,-7.1563,-7.1561,0,0,-7.1563,-7.1575,-7.1598,-7.1612,-7.1627,-7.1669,-7.1738,-7.1777,-7.1807,-7.1829,-7.1885,-7.195,-7.1904,-7.1923,-7.1895,-7.1947,-7.2079,-7.189,-7.1889,-7.1924,-7.2218,-7.2256,-7.2281,-7.2049,-7.2053,-7.2056,-7.2217,0,-7.1722,-7.1842,-7.1812,-7.193,-7.1982,-7.1921,-7.198,-7.1996,-7.1988,-7.2029,-7.2019,-7.2067,-7.2002,-7.2013,-7.2062,-7.2053,-7.2137,-7.2041,-7.21,-7.2102,-7.2098,-7.2308,-7.2348,-7.2499,-7.2237,-7.224,-7.2243,0,-7.1923,-7.1955,-7.2079,-7.2086,-7.2107,-7.2161,-7.2195,-7.2236,-7.2251,-7.2242,-7.2264,-7.2226,-7.2293,-7.2213,-7.2304,-7.2239,-7.2261,-7.2261,-7.2266,-7.227,-7.2181,-7.2317,-7.2547,-7.2569,-7.2274,-7.2272,-7.227,0,-7.2076,-7.215,-7.2234,-7.2247,-7.2258,-7.2297,-7.2303,-7.2315,-7.234,-7.2369,-7.2385,-7.2422,-7.2441,-7.247,-7.2443,-7.2387,-7.2538,-7.2455,-7.2531,-7.2532,-7.2565,-7.2563,-7.2801,-7.2581,-7.258,-7.258,-7.2579,0,-7.2257,-7.2335,-7.2303,-7.2354,-7.244,-7.2405,-7.249,-7.2488,-7.2499,-7.2548,-7.2497,-7.2544,-7.2506,-7.2549,-7.2528,-7.2607,-7.2616,-7.2609,-7.2603,-7.2614,-7.2615,-7.2627,-7.2616,-7.2586,-7.2584,-7.2583,-7.2582,0,-7.2442,-7.2424,-7.2511,-7.2514,-7.2517,-7.258,-7.2582,-7.2629,-7.2618,-7.2681,-7.2693,-7.2675,-7.2724,-7.27,-7.275,-7.2736,-7.2837,-7.2816,-7.2832,-7.2827,-7.2903,-7.2897,-7.3157,-7.3189,-7.2949,-7.2951,-7.2953,0,-7.2558,-7.2617,-7.2627,-7.2657,-7.2667,-7.2716,-7.2743,-7.271,-7.274,-7.2763,-7.2807,-7.2851,-7.2885,-7.2965,-7.2956,-7.2994,-7.2973,-7.3062,-7.2979,-7.2988,-7.2974,-7.2971,-7.2976,-7.3079,-7.3081,-7.3084,-7.3086,0,-7.2766,-7.2754,-7.2795,-7.2834,-7.2867,-7.2895,-7.2919,-7.2946,-7.2914,-7.295,-7.3,-7.3026,-7.3078,-7.3122,-7.3156,-7.316,-7.3118,-7.3112,-7.3132,-7.3143,-7.315,-7.3147,-7.2878,-7.3106,-7.3104,-7.3103,-7.3101,-7.3101,-7.2919,-7.2969,-7.2985,-7.3032,-7.3047,-7.307,-7.3115,-7.311,-7.3152,-7.3192,-7.317,-7.3229,-7.3242,-7.3283,-7.3293,-7.3337,-7.3302,-7.333,-7.3337,-7.3344,-7.3355,-7.3144,-7.3343,-7.3343,-7.3342,-7.3341,-7.3341,0,-7.3124,-7.3132,-7.3176,-7.3211,-7.3249,-7.3207,-7.3231,-7.3265,-7.3317,-7.3335,-7.3369,-7.3427,-7.347,-7.3465,-7.3504,-7.354,-7.3522,-7.3551,-7.3548,-7.355,-7.3384,-7.3363,-7.3566,-7.3566,-7.3566,-7.3566,-7.3566,-7.3565,-7.3235,-7.3317,-7.3308,-7.3396,-7.3402,-7.346,-7.3478,-7.3499,-7.3512,-7.3579,-7.3616,-7.3612,-7.362,-7.366,-7.3697,-7.3694,-7.3711,-7.3748,-7.3738,-7.3584,-7.3561,-7.354,-7.352,-7.3752,-7.3752,-7.39,-7.3901,-7.3902]}]]